Location: Pallagorio
(39.3000°N, 16.9000°E)
Time: 21:56:36
(UTC+00:00)

NOSS 3-1 (A) - Pass Details

Date: 24 January 2021
Orbit: 735 x 1477 km, 63.4° (Epoch: 02 March)

Event Time Altitude Azimuth Distance (km) Brightness Sun altitude
Rises 18:50:16 0° 324° (NW) 4,048 7.2 -32.1°
Reaches altitude 10° 18:52:50 10° 322° (NW) 3,179 6.6 -32.6°
Maximum altitude 19:00:39 71° 241° (WSW) 1,426 4.3 -34.1°
Enters shadow 19:02:49 53° 178° (S) 1,663 4.5 -34.5°
